Location: Newark
(47.8167°N, 6.1833°E)
Time: 23:42:29
(UTC+00:00)

N. Korean satellite - Pass Details

Date: 01 October 2020
Orbit: 452 x 505 km, 97.2° (Epoch: 29 October)

Event Time Altitude Azimuth Distance (km) Brightness Sun altitude
Rises 04:15:00 0° 28° (NNE) 2,577 10.8 -14.2°
Reaches altitude 10° 04:17:39 10° 48° (NE) 1,678 10.2 -13.7°
Maximum altitude 04:20:06 17° 91° (E) 1,280 9.8 -13.3°
Drops below altitude 10° 04:22:30 10° 134° (SE) 1,646 9.8 -12.9°
Sets 04:25:04 0° 155° (SSE) 2,506 10.4 -12.5°
